Showing default

TIANQI 40, 67479

Orbit data source: Space-Track

TIANQI 40, 67479 is a payload satellite owned by Guodian Gaokeji (CN) in LEO that was launched on Thu, 15 Jan 2026 UTC via a GUSHENXING 1 launch vehicle from the Yellow Sea Launch Area, China (YSLA). Payload-class satellites include a variety of spacecraft equipped with specific instruments for various scientific and technological missions. These include communications satellites like Starlink; space stations such as the ISS; scientific satellites like the Hubble; Earth observation satellites from companies like Planet Labs, Umbra, and HawkEye 360; GPS; miniature CubeSats for education and research; and military/defense satellites.

Loading next visibility...
Identifier
67479, 2026-010D
Orbit
LEO
Country
Flag of CNCN / PRC
Related business
Manufacturer
Shanghai ASES
Mission
Operational spacecraft
Bus & Motor
STARLIGHTB, Unknown motor
Mass
40 kg wet, ~40 kg dry
Launch date (UTC)
2026-01-15 (4 weeks ago)
Launch vehicle
GUSHENXING 1
Launch site
Yellow Sea Launch Area, China (YSLA)
Object type
Payload
Rocket body
Debris
Shape & HBR
Unknown
Radar Cross Section
RCS unknown

Expand to show TLE details & history
Last TLE update: 1 day ago

TLE from 1 day ago
0 TIANQI 40
1 67479U 26010D   26039.27350164  .00000207  00000-0  17842-3 0  9994
2 67479  44.9833 296.6296 0012352  83.3775 276.8469 14.13804029  3324
Epoch: 2026-02-08T06:33Z
TLE epoch observation values (Epoch: 2026-02-08T06:33:50.541Z)
Latitude
-0.00003°
Longitude
59.78395°
Altitude
845.328 km
Speed
7.432 km/s
True Right ascension
19h 46m 31s
True Declination
0° 00' 00"
Sunlit
Object was in daylight at epoch
Visualization orbit readout
Latitude
Unknown
Longitude
Unknown
Altitude
Unknown
Speed
Unknown
Apparent Right ascension
Unknown
Apparent Declination
Unknown
Sunlit
N/A
Visualization observer readout
Local Sidereal Time
11:16:46
Azimuth
Unknown
Elevation
Unknown
Doppler factor
Unknown
Orbital elements
Apogee altitude
856.841 km
Perigee altitude
838.989 km
Semi-major axis
7,226.052 km
Eccentricity
0.00124
Inclination
44.9833°
RAAN
296.6296°
Arg. of periapsis
83.3775°
True anomaly
276.70634°
Mean anomaly
276.8469°
Eccentric anomaly
276.77662°
Mean motion
3.53339 °/min
Orbital period
101.89 mins
BSTAR
0.00017842
Loading maneuver chart data...
Computing Atmospheric mass density...
Loading historical data...
Loading historical data...
Loading historical data...
Loading historical data...
Loading historical data...
Loading historical data...
Loading historical data...
Other satellites on launch #10 in the year 2026 (2026-01-15 UTC)

Documentation

Showing up to 5 results
|